Showing default

GONETS D1 4, 24728

Orbit data source: Space-Track

GONETS D1 4, 24728 is a payload satellite owned by Gonets (CIS) in LEO that was launched on Fri, 14 Feb 1997 UTC via a TSIKLON-3 launch vehicle from the Plesetsk Missile And Space Complex (PKMTR). Payload-class satellites include a variety of spacecraft equipped with specific instruments for various scientific and technological missions. These include communications satellites like Starlink; space stations such as the ISS; scientific satellites like the Hubble; Earth observation satellites from companies like Planet Labs, Umbra, and HawkEye 360; GPS; miniature CubeSats for education and research; and military/defense satellites.

Loading next visibility...
Identifier
24728, 1997-006D
Orbit
LEO
Country
Flag of CISCIS
Related business
Manufacturer
NPO PM
Mission
Non-operational Civil Communications
Bus & Motor
STRELA-3, Unknown motor
Mass
225 kg wet, 225 kg dry
Launch date (UTC)
1997-02-14 (29 years ago)
Launch vehicle
TSIKLON-3
Launch site
Plesetsk Missile And Space Complex (PKMTR)
Object type
Payload
Rocket body
Debris
Shape & HBR
Cyl + 1 Ant, 3.5 m
Radar Cross Section
1.798 m², Medium (>0.1 m² and < 1m²)

Expand to show TLE details & history
Last TLE update: 1 day ago

TLE from 1 day ago
0 GONETS D1 4
1 24728U 97006D   25259.89504011  .00000043  00000-0  17482-3 0  9998
2 24728  82.6032  50.5805 0008676  83.6117 276.5963 12.63914325318682
Epoch: 2025-09-16T21:28Z
TLE epoch observation values (Epoch: 2025-09-16T21:28:51.465Z)
Latitude
-0.00001°
Longitude
92.28728°
Altitude
1,408.792 km
Speed
7.156 km/s
True Right ascension
03h 22m 19s
True Declination
0° 00' 00"
Sunlit
Object was in daylight at epoch
Visualization orbit readout
Latitude
Unknown
Longitude
Unknown
Altitude
Unknown
Speed
Unknown
Apparent Right ascension
Unknown
Apparent Declination
Unknown
Sunlit
N/A
Visualization observer readout
Local Sidereal Time
16:50:16
Azimuth
Unknown
Elevation
Unknown
Doppler factor
Unknown
Orbital elements
Apogee altitude
1,410.899 km
Perigee altitude
1,397.395 km
Semi-major axis
7,782.284 km
Eccentricity
0.00087
Inclination
82.6032°
RAAN
50.5805°
Arg. of periapsis
83.6117°
True anomaly
276.49753°
Mean anomaly
276.5963°
Eccentric anomaly
276.54691°
Mean motion
3.16142 °/min
Orbital period
113.87 mins
BSTAR
0.00017482
Loading maneuver chart data...
Computing Atmospheric mass density...
Loading historical data...
Loading historical data...
Loading historical data...
Loading historical data...
Loading historical data...
Loading historical data...
Loading historical data...

Documentation

Showing up to 5 results
|